When you browse on this site, cookies collect data to enhance your experience and personalize the content and advertising you see.
Visit our Privacy Policy to learn more. By continuing to use the site, you agree to this use of cookies and data.
  • In Lithuania
  • List of Countries
  • For 7 days
  • Water Temperature
  • Satellite Maps
  • Weather Map
  • Weather Widgets
  • user-avatar
    Login

    Hourly Weather Zubovka

    Today, 21 June, Friday

    Time Temperature Precipitation Wind Pressure Humidity
    00:00 +20°C° 0 mm 1 mps 745 mmHg 67%
    01:00 +19°C° 0 mm 1 mps 746 mmHg 69%
    02:00 +19°C° 0 mm 1 mps 746 mmHg 70%
    03:00 +18°C° 0 mm 1 mps 746 mmHg 72%
    04:00 +19°C° 0 mm 1 mps 746 mmHg 74%
    05:00 +20°C° 0 mm 1 mps 747 mmHg 76%
    06:00 +20°C° 0 mm 1 mps 747 mmHg 78%
    07:00 +22°C° 0 mm 1 mps 747 mmHg 74%
    08:00 +23°C° 0 mm 2 mps 747 mmHg 71%
    09:00 +25°C° 0 mm 2 mps 747 mmHg 67%
    10:00 +26°C° 0 mm 3 mps 747 mmHg 64%
    11:00 +26°C° 0 mm 3 mps 747 mmHg 61%
    12:00 +27°C° 0 mm 3 mps 746 mmHg 58%
    13:00 +28°C° 0 mm 4 mps 746 mmHg 58%
    14:00 +28°C° 0 mm 4 mps 746 mmHg 58%
    15:00 +28°C° 0 mm 4 mps 746 mmHg 58%
    16:00 +28°C° 0 mm 3 mps 746 mmHg 63%
    17:00 +28°C° 0 mm 3 mps 746 mmHg 67%
    18:00 +27°C° 0 mm 2 mps 746 mmHg 72%
    19:00 +26°C° 0 mm 2 mps 746 mmHg 73%
    20:00 +24°C° 0 mm 2 mps 746 mmHg 75%
    21:00 +23°C° 0 mm 2 mps 746 mmHg 77%
    22:00 +21°C° 0 mm 2 mps 746 mmHg 77%
    23:00 +20°C° 0 mm 2 mps 746 mmHg 77%

    Tomorrow, 22 June, Saturday

    Time Temperature Precipitation Wind Pressure Humidity
    00:00 +20°C° 0 mm 2 mps 746 mmHg 78%
    01:00 +19°C° 0 mm 3 mps 746 mmHg 78%
    02:00 +19°C° 0 mm 3 mps 746 mmHg 79%
    03:00 +19°C° 0 mm 3 mps 746 mmHg 80%
    04:00 +19°C° 0 mm 3 mps 746 mmHg 81%
    05:00 +19°C° 0 mm 3 mps 746 mmHg 83%
    06:00 +20°C° 0 mm 3 mps 746 mmHg 84%
    07:00 +21°C° 0 mm 3 mps 746 mmHg 80%
    08:00 +23°C° 0 mm 4 mps 746 mmHg 76%
    09:00 +26°C° 0 mm 4 mps 746 mmHg 72%
    10:00 +26°C° 0 mm 4 mps 746 mmHg 69%
    11:00 +27°C° 0 mm 5 mps 746 mmHg 66%
    12:00 +28°C° 0 mm 5 mps 746 mmHg 63%
    13:00 +28°C° 0 mm 5 mps 746 mmHg 63%
    14:00 +29°C° 0 mm 5 mps 746 mmHg 62%
    15:00 +29°C° 0 mm 5 mps 746 mmHg 61%
    16:00 +29°C° 0 mm 5 mps 745 mmHg 65%
    17:00 +28°C° 0 mm 4 mps 745 mmHg 69%
    18:00 +28°C° 0 mm 3 mps 745 mmHg 72%
    19:00 +26°C° 0 mm 3 mps 745 mmHg 76%
    20:00 +25°C° 0 mm 3 mps 745 mmHg 80%
    21:00 +22°C° 0 mm 3 mps 746 mmHg 84%
    22:00 +22°C° 0 mm 3 mps 746 mmHg 85%
    23:00 +21°C° 0 mm 3 mps 746 mmHg 86%

    Day after tomorrow, 23 June, Sunday

    Time Temperature Precipitation Wind Pressure Humidity
    00:00 +20°C° 0 mm 3 mps 746 mmHg 87%
    01:00 +20°C° 0 mm 3 mps 746 mmHg 89%
    02:00 +19°C° 0 mm 3 mps 746 mmHg 90%
    03:00 +19°C° 0 mm 3 mps 746 mmHg 91%
    04:00 +19°C° 0 mm 2 mps 746 mmHg 90%
    05:00 +20°C° 0 mm 2 mps 746 mmHg 89%
    06:00 +20°C° 0 mm 2 mps 746 mmHg 88%
    07:00 +23°C° 0 mm 2 mps 746 mmHg 83%
    08:00 +24°C° 0 mm 2 mps 746 mmHg 79%
    09:00 +26°C° 0 mm 2 mps 747 mmHg 75%
    10:00 +27°C° 0.1 mm 2 mps 747 mmHg 69%
    11:00 +28°C° 0.1 mm 2 mps 747 mmHg 64%
    12:00 +29°C° 0.1 mm 2 mps 747 mmHg 58%
    13:00 +29°C° 0.6 mm 2 mps 747 mmHg 60%
    14:00 +29°C° 0.6 mm 2 mps 747 mmHg 61%
    15:00 +29°C° 0.6 mm 2 mps 747 mmHg 62%
    16:00 +28°C° 0.9 mm 2 mps 746 mmHg 66%
    17:00 +28°C° 0.9 mm 2 mps 746 mmHg 71%
    18:00 +27°C° 0.9 mm 2 mps 746 mmHg 75%
    19:00 +25°C° 0.2 mm 2 mps 746 mmHg 80%
    20:00 +24°C° 0.2 mm 2 mps 746 mmHg 85%
    21:00 +21°C° 0.2 mm 2 mps 747 mmHg 90%
    22:00 +21°C° 0 mm 2 mps 747 mmHg 91%
    23:00 +20°C° 0 mm 3 mps 747 mmHg 92%

    24 June, Monday

    Time Temperature Precipitation Wind Pressure Humidity
    00:00 +19°C° 0 mm 3 mps 747 mmHg 94%
    01:00 +18°C° 0 mm 3 mps 748 mmHg 91%
    02:00 +17°C° 0 mm 4 mps 748 mmHg 87%
    03:00 +15°C° 0 mm 4 mps 748 mmHg 84%
    04:00 +15°C° 0 mm 4 mps 748 mmHg 83%
    05:00 +15°C° 0 mm 4 mps 749 mmHg 82%
    06:00 +15°C° 0 mm 4 mps 749 mmHg 81%
    07:00 +17°C° 0 mm 4 mps 749 mmHg 77%
    08:00 +18°C° 0 mm 4 mps 750 mmHg 73%
    09:00 +20°C° 0 mm 4 mps 750 mmHg 68%
    10:00 +21°C° 0 mm 4 mps 750 mmHg 65%
    11:00 +21°C° 0 mm 4 mps 750 mmHg 62%
    12:00 +22°C° 0 mm 4 mps 751 mmHg 59%
    13:00 +22°C° 0 mm 4 mps 751 mmHg 58%
    14:00 +22°C° 0 mm 4 mps 751 mmHg 57%
    15:00 +23°C° 0 mm 4 mps 750 mmHg 56%
    16:00 +22°C° 0 mm 4 mps 750 mmHg 59%
    17:00 +22°C° 0 mm 3 mps 750 mmHg 63%
    18:00 +22°C° 0 mm 3 mps 750 mmHg 66%
    19:00 +20°C° 0 mm 3 mps 751 mmHg 68%
    20:00 +18°C° 0 mm 3 mps 751 mmHg 70%
    21:00 +17°C° 0 mm 3 mps 751 mmHg 72%
    22:00 +16°C° 0 mm 3 mps 751 mmHg 73%
    23:00 +14°C° 0 mm 3 mps 751 mmHg 75%

    25 June, Tuesday

    Time Temperature Precipitation Wind Pressure Humidity
    00:00 +13°C° 0 mm 3 mps 751 mmHg 77%
    01:00 +13°C° 0 mm 3 mps 751 mmHg 76%
    02:00 +13°C° 0 mm 2 mps 752 mmHg 75%
    03:00 +13°C° 0 mm 2 mps 752 mmHg 74%
    04:00 +13°C° 0 mm 2 mps 752 mmHg 75%
    05:00 +13°C° 0 mm 2 mps 752 mmHg 77%
    06:00 +14°C° 0 mm 2 mps 752 mmHg 78%
    07:00 +15°C° 0 mm 2 mps 752 mmHg 75%
    08:00 +17°C° 0 mm 3 mps 752 mmHg 72%
    09:00 +18°C° 0 mm 3 mps 752 mmHg 68%
    10:00 +19°C° 0 mm 3 mps 752 mmHg 65%
    11:00 +20°C° 0 mm 3 mps 752 mmHg 62%
    12:00 +20°C° 0 mm 3 mps 752 mmHg 58%
    13:00 +21°C° 0 mm 3 mps 752 mmHg 58%
    14:00 +21°C° 0 mm 3 mps 752 mmHg 57%
    15:00 +21°C° 0 mm 3 mps 752 mmHg 56%
    16:00 +21°C° 0 mm 3 mps 751 mmHg 58%
    17:00 +20°C° 0 mm 3 mps 751 mmHg 60%
    18:00 +20°C° 0 mm 2 mps 751 mmHg 63%
    19:00 +19°C° 0 mm 2 mps 751 mmHg 66%
    20:00 +18°C° 0 mm 1 mps 751 mmHg 70%
    21:00 +15°C° 0 mm 1 mps 750 mmHg 74%
    22:00 +15°C° 0 mm 1 mps 750 mmHg 74%
    23:00 +15°C° 0 mm 1 mps 750 mmHg 74%

    26 June, Wednesday

    Time Temperature Precipitation Wind Pressure Humidity
    00:00 +14°C° 0 mm 1 mps 750 mmHg 74%
    01:00 +14°C° 0 mm 1 mps 749 mmHg 76%
    02:00 +14°C° 0 mm 1 mps 749 mmHg 78%
    03:00 +13°C° 0 mm 2 mps 749 mmHg 80%
    04:00 +14°C° 0 mm 2 mps 748 mmHg 80%
    05:00 +14°C° 0 mm 2 mps 748 mmHg 79%
    06:00 +14°C° 0 mm 2 mps 747 mmHg 78%
    07:00 +14°C° 0.2 mm 3 mps 747 mmHg 80%
    08:00 +14°C° 0.2 mm 3 mps 746 mmHg 82%
    09:00 +14°C° 0.2 mm 3 mps 746 mmHg 85%
    10:00 +14°C° 0.8 mm 3 mps 746 mmHg 85%
    11:00 +14°C° 0.8 mm 3 mps 745 mmHg 86%
    12:00 +14°C° 0.8 mm 3 mps 745 mmHg 86%
    13:00 +16°C° 0.6 mm 2 mps 744 mmHg 82%
    14:00 +17°C° 0.6 mm 2 mps 744 mmHg 77%
    15:00 +18°C° 0.6 mm 1 mps 744 mmHg 73%
    16:00 +18°C° 1.1 mm 1 mps 743 mmHg 74%
    17:00 +18°C° 1.1 mm 1 mps 743 mmHg 76%
    18:00 +18°C° 1.1 mm 1 mps 742 mmHg 77%
    19:00 +15°C° 0.3 mm 2 mps 742 mmHg 81%
    20:00 +14°C° 0.3 mm 2 mps 742 mmHg 84%
    21:00 +13°C° 0.3 mm 2 mps 742 mmHg 87%
    22:00 +11°C° 0.1 mm 3 mps 742 mmHg 90%
    23:00 +11°C° 0.1 mm 4 mps 742 mmHg 93%
    Show more